SCP
0 0 0 0 0 0 0 0 0 0 0 0 0 0 0 0 0 0 0 1 1 1 1 1 1 1 1 1 1 1 1 1 1 0 0 0 0 0 0 0 0 0 0
0 0 0 0 0 0 0 0 0 0 0 0 0 0 0 0 0 0 0 1 1 1 1 1 1 1 1 1 1 1 1 1 1 1 1 0 0 0 0 0 0 0 0
0 0 0 0 0 0 0 0 0 0 0 0 0 0 0 0 0 0 1 1 1 1 1 1 1 1 1 1 1 1 1 1 1 1 1 1 1 0 0 0 0 0 0
0 0 0 0 0 0 0 0 0 0 0 0 0 0 0 0 0 0 0 0 0 1 1 1 1 1 1 1 1 1 1 1 1 1 1 1 1 1 0 0 0 0 0
0 0 0 0 0 0 0 0 0 0 0 0 0 0 0 0 0 0 0 0 0 0 0 1 1 1 1 1 1 1 1 1 1 1 1 1 1 1 1 0 0 0 0
0 0 0 0 0 0 0 0 0 0 0 0 0 0 0 0 0 0 0 0 0 0 0 0 0 1 1 1 1 1 1 1 1 1 1 1 1 1 1 1 0 0 0
0 0 0 0 0 0 0 0 0 0 0 0 0 0 0 0 0 0 0 0 0 0 0 0 0 0 0 1 1 1 1 1 1 1 1 1 1 1 0 0 0 0 0
0 0 0 0 0 0 0 0 0 0 0 0 0 0 0 0 0 0 0 0 0 0 0 0 0 0 0 0 1 1 1 1 1 1 1 1 1 0 0 1 1 0 0
0 0 0 0 0 0 0 0 0 0 0 0 0 0 0 0 0 0 0 0 0 0 0 0 0 0 0 0 0 0 1 1 1 1 1 1 0 0 0 1 1 1 1
0 0 0 0 0 0 0 0 0 0 0 0 0 0 0 0 0 0 0 0 0 0 0 0 0 0 0 0 0 0 0 0 0 0 0 0 0 0 0 0 0 0 0
0 0 0 0 0 0 0 0 0 0 0 0 0 0 0 0 0 0 0 0 0 0 0 0 0 0 0 0 0 0 0 0 0 0 0 0 0 0 0 0 0 0 0
0 0 0 0 0 0 0 0 0 0 0 0 0 0 0 0 0 0 0 0 0 0 0 0 0 0 0 0 0 0 0 0 0 0 0 0 0 0 0 0 0 0 0
0 0 0 0 0 0 0 0 0 0 0 0 0 0 0 0 0 0 0 0 0 0 0 0 0 0 0 0 0 0 0 0 0 0 0 0 0 0 0 0 0 0 0
0 0 0 0 0 0 0 0 0 0 0 0 0 0 0 0 0 0 0 0 0 0 0 0 0 0 0 0 0 0 0 0 0 0 0 0 0 0 0 0 0 0 0
0 0 0 0 0 0 0 0 0 0 0 0 0 0 0 0 0 0 0 0 0 0 0 0 0 0 0 0 0 0 0 0 0 0 0 0 0 0 0 0 0 0 0
0 0 0 0 0 0 0 0 0 0 0 0 0 0 0 0 0 0 0 0 0 0 0 0 0 0 0 0 0 0 0 0 0 0 0 0 0 0 0 0 0 0 0
0 0 0 0 0 0 0 0 0 0 0 0 0 0 0 0 0 0 0 0 0 0 0 0 0 0 0 0 0 0 0 0 0 0 0 0 0 0 0 0 0 0 0
0 0 0 0 0 0 0 0 0 0 0 0 0 0 0 0 0 0 0 0 0 0 0 0 0 0 0 0 0 0 0 0 0 0 0 0 0 0 0 0 0 0 0
0 0 0 0 0 0 0 0 0 0 0 0 0 0 0 0 0 0 0 0 0 0 0 0 0 0 0 0 0 0 0 0 0 0 0 0 0 0 0 0 0 0 0
0 0 0 0 0 0 0 0 0 0 0 0 0 0 0 0 0 0 0 0 0 0 0 0 0 0 0 0 0 0 0 0 0 0 0 0 0 0 0 0 0 0 0
0 0 0 0 0 0 0 0 0 0 0 0 0 0 0 0 0 0 0 0 0 0 0 0 0 0 0 0 0 0 0 0 0 0 0 0 0 0 0 0 0 0 0
0 0 0 0 0 0 0 0 0 0 0 0 0 0 0 0 0 0 0 0 0 0 0 0 0 0 0 0 0 0 0 0 0 0 0 0 0 0 0 0 0 0 0
0 0 0 0 0 0 0 0 0 0 0 0 0 0 0 0 0 0 0 0 0 0 0 0 0 0 0 0 0 0 0 0 0 0 0 0 0 0 0 0 0 0 0
0 0 0 0 0 0 0 0 0 0 0 0 0 0 0 0 0 0 0 0 0 0 0 0 0 0 0 0 0 0 0 0 0 0 0 0 0 0 0 0 0 0 0
0 0 0 0 0 0 0 0 0 0 0 0 0 0 0 0 0 0 0 0 0 0 0 0 0 0 0 0 0 0 0 0 0 0 0 0 0 0 0 0 0 0 0
0 0 0 0 0 0 0 0 0 0 0 0 0 0 0 0 0 0 0 0 0 0 0 0 0 0 0 0 0 0 0 0 0 0 0 0 0 0 0 0 0 0 0
Wind_Speed
3 3 3 3 3 3 3 3 4 5 6 7 7 7 8 8 7 6 5 13 15 15 17 19 19 18 17 17 16 15 14 13 12 11 10 9 8 7 6 6 6 7 8
3 3 3 3 3 3 4 4 5 4 4 5 6 7 7 7 8 9 7 10 16 16 18 19 20 19 18 18 18 16 16 15 14 12 10 9 8 7 7 7 7 8 8
3 3 3 3 4 4 4 4 5 3 3 4 5 6 6 7 7 9 9 7 9 14 16 18 20 20 20 20 19 18 17 16 15 13 11 9 8 7 7 7 8 8 8
4 3 3 4 4 4 4 4 5 4 4 3 4 4 4 5 7 8 7 7 7 7 11 15 17 20 21 21 20 20 18 16 14 13 11 10 8 7 7 7 8 8 9
5 3 3 4 5 4 4 5 5 4 4 4 4 4 4 4 5 6 6 7 7 7 7 11 14 16 18 20 20 20 19 18 16 14 12 10 8 7 7 7 8 8 9
9 4 4 5 4 4 4 4 5 4 4 3 3 3 3 4 4 4 5 5 6 8 7 7 7 9 14 17 19 19 19 18 17 15 12 10 9 8 7 7 7 8 9
14 9 5 5 4 4 5 5 4 5 4 2 2 2 3 3 3 3 4 4 5 7 7 8 6 5 5 11 14 17 18 18 17 15 13 11 10 8 8 8 8 8 8
15 13 10 6 5 4 5 4 4 3 3 3 3 2 3 4 2 2 2 3 4 3 5 6 6 7 5 3 6 11 14 17 17 14 12 11 11 10 9 8 8 8 8
16 15 14 9 6 5 4 5 5 5 4 2 3 3 3 4 2 3 1 1 2 3 3 4 6 6 6 4 4 6 8 10 12 11 11 11 11 11 11 7 6 7 7
16 17 16 11 7 5 5 5 4 4 5 3 2 2 2 3 2 1 3 3 2 1 2 3 4 5 5 4 5 9 10 9 9 8 9 9 9 10 10 8 2 1 3
15 17 17 12 9 5 6 6 4 4 4 4 4 3 2 1 2 2 0 3 3 3 1 2 4 4 5 4 4 8 11 10 9 8 7 6 5 5 3 1 2 2 4
11 15 17 15 11 7 6 6 6 6 4 4 3 3 4 3 3 3 2 1 1 2 2 1 2 4 4 5 7 12 11 10 9 8 7 5 4 3 3 3 2 3 3
12 14 15 15 12 9 7 5 5 5 5 4 4 3 3 3 3 3 3 2 1 2 2 1 0 2 4 4 6 12 10 11 10 9 8 6 5 4 3 1 2 2 4
14 17 17 16 14 10 7 5 4 5 5 4 3 2 2 2 3 3 4 4 2 1 1 2 1 2 3 4 6 10 7 11 11 10 8 7 6 5 3 3 3 3 4
15 18 18 18 14 8 6 5 4 5 6 6 5 3 1 1 1 2 3 4 5 3 3 3 2 2 3 3 8 6 6 10 12 11 9 8 7 6 4 4 4 4 5
18 18 17 16 13 7 4 4 4 5 6 5 5 6 4 2 2 0 1 2 3 5 4 4 4 3 3 4 9 7 7 14 13 12 11 9 8 6 5 3 3 4 5
18 18 15 13 11 8 4 3 3 5 7 5 5 7 6 5 4 3 1 2 3 3 4 4 2 2 3 4 5 5 5 6 6 12 12 10 8 6 4 2 1 3 4
17 16 12 9 5 2 1 3 3 4 6 6 6 7 7 6 4 3 2 2 1 2 4 5 3 2 3 4 5 5 4 5 5 11 14 11 8 6 5 2 2 2 2
18 16 10 9 9 7 7 7 7 8 8 7 7 8 8 6 2 1 3 3 2 1 1 4 3 1 0 1 3 3 3 2 3 7 12 11 9 7 5 4 3 1 2
18 17 14 12 12 12 11 10 10 10 10 10 9 9 8 5 3 3 4 4 3 3 2 1 2 2 2 2 2 4 3 2 2 3 4 7 9 9 9 9 8 6 4
16 16 16 15 13 11 12 13 13 12 12 11 11 9 9 10 10 7 5 5 5 4 3 2 2 2 2 2 2 1 3 3 3 4 3 3 3 4 4 5 5 5 5
13 13 13 14 13 11 17 19 13 10 10 10 8 7 8 10 11 12 12 10 9 5 3 2 2 2 3 3 2 2 2 3 3 3 2 2 2 3 3 3 7 12 13
11 9 10 11 12 14 17 15 14 8 8 7 6 6 6 7 8 7 8 9 9 11 10 4 4 4 3 4 3 3 3 3 3 2 1 2 2 3 3 5 14 15 14
10 8 7 8 9 13 15 12 12 8 7 7 7 7 7 7 7 7 5 7 8 8 8 5 4 3 3 2 3 2 1 3 5 5 4 2 3 3 3 3 12 14 13
9 9 7 6 8 10 14 12 11 5 5 6 7 7 6 6 10 10 6 6 7 6 9 13 13 12 10 7 3 2 1 2 3 4 5 2 2 3 2 1 5 12 12
11 10 8 7 8 8 13 12 10 4 5 4 5 7 9 7 9 10 5 5 7 5 6 8 11 13 12 13 15 9 4 3 3 3 4 2 1 2 2 2 2 3 5
Wind_Direction
263 259 243 231 224 224 229 235 236 238 239 240 239 236 231 227 226 223 220 213 205 204 205 202 198 197 198 200 200 200 199 197 195 196 200 205 213 225 235 241 248 253 254
282 275 267 257 246 236 231 232 235 233 236 236 241 238 234 229 227 223 215 211 208 204 207 207 205 203 203 203 203 202 200 200 199 201 205 208 215 229 241 250 259 263 263
293 279 269 263 256 251 248 246 249 243 248 252 254 248 237 226 218 214 208 201 205 208 209 211 210 209 208 206 204 202 201 200 197 197 200 204 214 230 245 256 264 268 266
267 253 249 256 258 256 249 246 244 243 244 249 258 257 247 229 217 211 201 197 196 201 210 214 213 213 214 213 210 206 201 197 194 193 196 201 210 227 248 268 276 278 273
275 240 244 258 264 257 248 247 238 221 232 247 256 258 254 243 229 218 206 199 197 197 199 210 214 218 217 218 217 212 205 198 192 192 195 197 205 221 242 263 277 282 282
301 267 249 265 269 261 260 249 240 223 217 230 253 266 259 249 242 231 219 206 201 201 199 201 209 223 222 218 218 215 208 200 193 192 194 199 207 220 237 254 270 277 281
324 302 266 253 248 246 251 247 235 227 223 199 213 280 293 269 244 239 230 216 211 205 196 199 200 205 217 217 212 213 211 205 199 196 197 203 210 221 234 247 260 269 276
328 320 293 261 238 236 248 242 226 214 207 179 178 205 297 318 307 281 242 225 220 206 202 195 190 193 192 192 208 208 208 206 203 201 204 212 221 228 235 241 250 260 268
324 323 306 277 242 218 222 223 214 193 192 192 176 168 189 239 299 329 340 233 196 193 192 180 180 178 172 170 173 181 171 187 197 205 213 221 228 233 235 235 247 260 269
324 322 318 295 260 223 212 217 204 188 170 176 165 156 169 173 184 319 343 2 359 144 158 151 150 149 149 149 155 156 144 149 168 186 201 211 220 227 229 225 190 38 352
319 318 316 308 283 249 216 205 189 174 169 168 165 155 134 107 129 139 291 338 353 356 29 135 133 134 138 140 146 153 146 148 157 168 176 186 196 205 211 132 59 351 322
312 310 314 311 298 274 232 201 187 172 167 164 164 157 154 156 170 153 165 232 300 319 339 24 129 134 138 144 154 151 146 144 149 151 148 142 137 135 108 70 36 1 341
311 309 309 305 294 275 254 207 172 157 153 159 169 172 166 170 157 149 147 172 223 304 324 322 249 139 138 140 149 152 149 144 144 143 138 133 127 117 96 53 11 2 10
306 305 305 299 287 264 239 212 160 142 128 123 134 150 161 171 166 162 157 148 153 296 318 272 287 189 157 154 165 153 153 150 145 143 142 138 134 124 104 80 51 20 5
305 300 299 295 287 261 212 187 153 140 124 111 98 85 101 150 173 176 160 153 153 179 236 262 256 223 180 168 167 153 155 164 155 153 149 142 136 127 107 78 50 27 13
305 299 292 288 278 257 197 154 134 120 108 110 106 85 57 30 24 37 191 181 166 166 205 234 231 230 188 183 179 163 169 167 164 162 158 154 150 141 121 87 46 20 9
309 302 296 290 270 249 215 156 142 127 114 106 99 94 72 46 21 357 317 186 184 167 195 242 247 242 186 181 173 175 171 160 171 175 170 168 166 157 148 143 15 6 2
319 312 310 316 304 263 146 126 129 111 107 100 90 86 74 64 31 346 3 55 125 190 187 212 228 209 203 193 172 175 174 169 172 180 173 174 172 171 175 197 264 312 330
339 336 343 5 19 30 51 64 71 68 69 71 74 81 79 88 101 45 46 46 34 38 187 192 202 179 139 115 139 137 132 135 171 170 168 165 163 162 149 125 99 45 299
354 356 10 28 34 34 38 47 57 61 61 58 57 65 71 86 103 87 62 37 29 32 36 129 132 106 70 12 104 132 110 78 53 51 112 123 120 105 93 87 81 66 34
2 5 15 24 32 40 43 43 42 44 45 45 42 41 45 48 56 66 74 55 37 28 24 49 83 92 71 51 67 92 126 112 61 31 43 56 77 70 54 43 47 43 43
1 9 14 16 22 34 50 56 59 51 48 44 38 30 37 34 30 35 48 55 54 46 29 29 40 72 67 36 21 60 108 134 118 38 59 30 37 66 42 32 62 70 69
352 6 12 13 13 21 41 52 63 69 65 57 46 36 33 25 35 22 30 52 52 59 58 48 44 42 52 21 20 52 60 78 83 16 47 88 32 54 37 58 75 65 57
349 354 9 9 9 8 26 47 62 67 69 63 53 42 34 13 26 31 42 69 66 57 63 65 79 67 57 34 32 40 38 86 88 30 18 80 26 10 9 32 54 51 42
348 351 5 6 5 359 15 45 57 48 55 50 47 41 35 9 36 45 47 66 63 43 50 65 72 75 74 74 79 59 50 93 94 40 10 61 27 344 336 349 28 32 26
353 356 8 9 4 356 9 34 50 40 48 55 38 18 17 28 53 59 41 51 66 51 53 71 68 60 54 53 53 48 37 65 93 92 10 30 29 359 338 327 347 8 20